Weather in Tarragona

Spain     41°07′03″N   1°15′06″E
temp.,
°C
wind,
m/s
gust,
m/s
humid.,
%
clouds,
%
prec.,
mm/h
press.,
hPa
HPBL,
m
12 april, mon
mon1223:00+14w91164100 0.3 1017460
02:00+13nw787098 0.3 1019425
05:00+11wnw997299 0.8 1020417
08:00+10wnw9106195 1.0 1022485
11:00+11wnw775326 0.0 1024656
14:00+14w35471 0.0 1024669
17:00+14ssw67561 0.0 1022381
20:00+13sw1111630 0.0 1023490
13 april, tue
tue1323:00+13sw89693 0.0 1025554
02:00+13w46571 0.0 1025447
05:00+12nw44585 0.0 1025365
08:00+12nw335176 0.0 1025264
11:00+12wnw2254100 0.0 1026273
14:00+13ssw2256100 0.0 1025191
17:00+14ssw445387 0.0 1023322
20:00+14ssw447656 0.0 1023445
14 april, wed
wed1423:00+14sw348023 0.0 1024387
02:00+14ssw237687 0.0 1023382
05:00+13se11735 0.0 1022316
08:00+13sse2273100 0.0 1022473
11:00+13e3373100 0.0 1022503
14:00+13ese4376100 0.0 1021599
17:00+13ese4373100 0.0 1020615
20:00+14ese4373100 0.0 1019688
15 april, thu
thu1523:00+13e6577100 0.1 1020615
02:00+13e4472100 0.1 1020550
05:00+13ene5566100 0.0 1018601
08:00+13ene5662100 0.0 1018714
11:00+13e7760100 0.0 1019938
14:00+13e8868100 0.0 1018970
17:00+13e7764100 0.0 1017765
20:00+13e6763100 0.0 1017837
16 april, fri
fri1623:00+13ene6663100 0.0 1017840
02:00+13e3458100 0.0 1017800
05:00+13e3352100 0.0 1016906
08:00+13ene435693 0.0 1016801
11:00+13nne125399 0.0 1016502
14:00+13ssw335677 0.0 1015426
17:00+13sse556025 0.0 1014385
20:00+14s55615 0.0 1014772